www.pogodaiklimat.ru

Архив погоды в Кызылорде (Кызылординская область, Казахстан)

Время
(UTC), дата
21 11.05
00 12.05
03 12.05
06 12.05
09 12.05
12 12.05
15 12.05
18 12.05
21 12.05
00 13.05
03 13.05
06 13.05
09 13.05
12 13.05
15 13.05
18 13.05
21 13.05
00 14.05
03 14.05
06 14.05
09 14.05
12 14.05
15 14.05
18 14.05
21 14.05
00 15.05
03 15.05
06 15.05
09 15.05
12 15.05
15 15.05
18 15.05
21 15.05
00 16.05
03 16.05
06 16.05
09 16.05
12 16.05
15 16.05
18 16.05
21 16.05
00 17.05
03 17.05
06 17.05
09 17.05
12 17.05
15 17.05
18 17.05
21 17.05
00 18.05
03 18.05
06 18.05
09 18.05
12 18.05
15 18.05
18 18.05
Ветер
(напр.,м/с)
Видим. Явления Облачность Т
(С)
Тd
(С)
f
(%)
Тe
(С)
Тes
(С)
Комфортность P
(гПа)
Po
(гПа)
Тmin
(С)
Tmax
(С)
R
(мм)
R24
(мм)
S
(см)
СЗ 1 н/о ясно +16.4 +7.2 54 +17 +17 тепло 1020.8 1005.4
С 1 20 км ясно +13.6 +4.8 55 +14 +14 по сезону 1020.9 1005.3
штиль 0 50 км ясно +18.8 +6.1 43 +19 +26 тепло 1020.8 1005.5
С 2 50 км ясно +26.4 +5.8 27 +26 +42 жарко 1018.8 1004.0 +12.8
С 2 50 км ясно +28.3 +4.5 22 +27 +43 жарко 1016.6 1001.9
СВ 3 50 км 4/0
[Ci]
+29.3 +3.8 20 +27 +32 жарко 1015.3 1000.6
СВ 1 50 км 8/0
[Ac lent Ci sp]
+25.8 +6.8 30 +26 +26 жарко 1015.1 1000.2 +30.0
штиль 0 н/о ясно +22.5 +8.6 41 +24 +24 комфорт 1014.2 999.2 +30.0
В 1 н/о ясно +18.8 +8.9 53 +20 +20 тепло 1012.9 997.7
В 2 20 км 8/0
[Ac As]
+18.0 +8.8 55 +19 +19 тепло 1012.8 997.6
В 2 50 км 4/0
[Ac lent]
+21.0 +8.7 45 +23 +27 комфорт 1012.1 997.0
В 5 50 км 3/0
[Ci fib]
+28.1 +9.1 30 +28 +36 жарко 1010.2 995.5 +17.8
ЮВ 5 50 км 8/0
[Ci sp]
+31.1 +6.4 21 +29 +37 жарко 1008.2 993.6
В 5 50 км 10/6 1000 м
[Cb cap Ac As]
+31.2 +7.2 22 +30 +30 жарко 1006.3 991.8
В 2 20 км 10/10 600 м
[Cb cap]
+29.3 +7.0 25 +28 +28 жарко 1005.8 991.2 +32.4
В 1 н/о 8/0
[Ac trans]
+26.7 +8.8 32 +27 +27 жарко 1005.8 991.1 +32.4
В 1 н/о 6/0
[Ac trans]
+24.3 +7.7 35 +25 +25 комфорт 1004.9 990.1
штиль 0 20 км 9/0
[Ac trans]
+22.2 +7.4 38 +23 +23 комфорт 1005.8 990.9
В 1 50 км 8/0
[Ci]
+23.5 +7.5 36 +24 +29 комфорт 1006.0 991.1
штиль 0 50 км 9/0
[Ac As]
+30.5 +10.4 29 +30 +38 жарко 1005.7 991.2 +21.2
З 2 50 км 10/0
[Ac und]
+30.9 +10.1 28 +31 +36 жарко 1005.3 990.8
З 6 20 км пыльный позёмок 9/4 1000 м
[Cb cap Ac As]
+29.8 +10.1 29 +30 +30 жарко 1004.4 989.9
З 6 {15} 20 км пыльный позёмок 9/9 1000 м
[Cb cap Ac und]
+26.1 +10.4 37 +27 +27 жарко 1006.1 991.4 +32.8
З 4 н/о {пыльная буря} 4/4 1000 м
[Cb calv]
+22.7 +9.6 43 +24 +24 комфорт 1007.6 992.6 +32.8
ЮЗ 2 н/о 4/4 1000 м
[Cb calv]
+18.9 +8.8 52 +20 +20 тепло 1009.7 994.5
З 2 20 км 8/8 600 м
[Cb calv]
+17.6 +10.5 63 +18 +18 тепло 1011.3 996.0
З 2 50 км в посл. час ливневой дождь 10/10 600 м
[Cb cap]
+18.0 +15.5 85 +19 +19 по сезону 1013.0 997.8
ЮЗ 3 50 км {ливн. дождь} 10/10 600 м
[Cb cap]
+22.2 +14.8 63 +26 +26 душно 1013.7 998.7 +16.9 0.0
Ю 2 50 км 10/8 600 м
[Cb cap Ci]
+25.6 +13.6 47 +28 +30 жарко 1013.5 998.7
Ю 2 50 км 10/10 600 м
[Cb cap]
+25.2 +9.8 38 +26 +26 жарко 1014.0 999.2
штиль 0 50 км 8/4 1000 м
[Cb cap Ac lent]
+22.9 +8.7 40 +24 +24 комфорт 1015.4 1000.4 +26.5
штиль 0 н/о 4/4 1000 м
[Cb calv]
+18.8 +8.2 50 +19 +19 по сезону 1016.3 1001.1 +26.5
штиль 0 н/о 4/0
[Ac lent]
+16.3 +9.4 64 +16 +16 по сезону 1016.4 1001.1
штиль 0 20 км 10/0
[Ac lent Cs]
+16.0 +10.1 68 +16 +16 тепло 1017.2 1001.9
СВ 1 50 км 10/0
[Ac cuf Cs]
+20.7 +9.7 49 +23 +27 комфорт 1018.5 1003.3
В 2 50 км 8/0
[Ci]
+27.1 +10.9 36 +28 +41 жарко 1017.7 1002.8 +15.7
В 1 50 км слаб. ливневой дождь 9/9 600 м
[Cb calv]
+28.9 +10.2 31 +29 +31 жарко 1016.6 1001.9
штиль 0 50 км {ливн. дождь} 8/4 600 м
[Cb cap Ci]
+30.1 +10.6 30 +30 +34 жарко 1014.9 1000.3
ЮЗ 1 50 км в посл. час гроза {ливн. дождь} 8/8 600 м
[Cb cap]
+23.7 +15.6 60 +27 +27 жарко 1015.9 1001.0 +30.5
Ю 2 н/о {гроза, ливн. дождь} 4/4 1000 м
[Cb cap]
+22.5 +13.4 56 +25 +25 комфорт 1015.3 1000.3 +30.5 2
штиль 0 н/о 4/4 1000 м
[Cb cap Ac trans]
+19.8 +14.5 71 +22 +22 комфорт 1014.7 999.6
штиль 0 20 км 6/6 600 м
[Cb cap]
+18.4 +14.1 76 +19 +19 тепло 1013.8 998.6
В 2 50 км 8/8 600 м
[Cb cap]
+20.2 +12.8 62 +23 +24 комфорт 1013.9 998.8
нст 2 50 км 9/6 1000 м
[Cb cap Ci]
+26.3 +15.3 51 +29 +35 жарко 1012.7 997.9 +18.1
ЮЗ 4 50 км 10/10 600 м
[Cb cap]
+23.6 +13.3 52 +26 +26 жарко 1012.8 997.9
З 3 50 км {ливн. дождь} 9/8 600 м
[Cb calv Ac trans]
+21.7 +14.8 65 +25 +26 комфорт 1011.1 996.1
З 2 50 км 9/0
[Ac trans Ci]
+20.6 +15.0 70 +24 +24 комфорт 1010.1 995.0 +28.3
З 1 н/о 8/0
[Ac und]
+18.2 +14.2 77 +20 +20 тепло 1009.1 993.9 +28.3 0.4
штиль 0 н/о 6/0
[Ac trans]
+17.4 +13.9 80 +17 +17 тепло 1006.6 991.5
СЗ 2 20 км 8/8 600 м
[Cb cap Ac lent]
+17.0 +12.9 77 +17 +17 тепло 1003.7 988.5
штиль 0 20 км гроза, ливневой дождь 10/10 600 м
[Cb cap]
+18.0 +13.2 74 +18 +18 тепло 1004.0 988.9
ЮВ 1 50 км в посл. час ливневой дождь {гроза} 10/10 600 м
[Cb cap]
+17.5 +15.7 89 +19 +19 тепло 1005.8 990.7 +16.7 0.0
Ю 1 50 км {ливн. дождь} 10/10 600 м
[Cb cap]
+21.9 +17.0 74 +26 +26 душно 1006.1 991.2
Ю 2 {15} 50 км {ливн. дождь} 6/6 600 м
[Cb cap]
+24.5 +14.1 52 +27 +29 жарко 1006.1 991.4
Ю 4 50 км 8/4 1000 м
[Cb calv Ac lent]
+21.1 +11.6 55 +23 +23 комфорт 1006.8 991.8 +25.0
Ю 4 н/о 8/4 1000 м
[Cb calv Ac lent]
+17.0 +9.1 60 +17 +17 тепло 1008.0 992.7 +25.0 4
Местоположение метеостанции Кызылорда (Кызылординская область, Казахстан): широта 44.85 долгота 65.50 высота над уровнем моря 130 м.
В архиве по умолчанию представлена погода в Кызылорде за последнюю неделю. Архивные данные за месяц целиком и за предыдущие месяцы, начиная с января 2011 года, Вы можете получить, выбрав интересующий диапазон дат из раскрывающегося списка и нажав кнопку "Найти!".
*Определитесь, кто Вы:
Внимание! Время в таблицах - всемирное. Для получения местного времени необходимо прибавить поправку, которая равна 6 ч.
Некоторые строки с данными для отдельных станций могут быть выделены курсивом. Это означает, что фактические данные отсутствуют по различным причинам, а приведенные значения являются расчетными модельными данными для данного пункта наблюдений.
Смотрите также архив погоды в соседних городах и на ближайших метеорологических станциях:
Партнеры нашего сайта:      
Пояснения к столбцам:
  • Ветер - указаны скорость ветра в м/с - средняя за 10 мин, порывы в срок и между сроками (в фигурных скобках) и направление, откуда дует ветер: С - северный,
  • СВ - северо-восточный, В - восточный, ЮВ - юго-восточный, Ю - южный, ЮЗ - юго-западный, З - западный, СЗ - северо-западный.
  • Видимость - горизонтальная дальность видимости в метрах или километрах. При видимости от 1 до 10 км при отсутствии осадков обычно наблюдается дымка, при ухудшении видимости до 1 км и менее - туман. В сухую погоду видимость может ухудшаться дымом, пылью или мглою.
  • Явления - указаны атмосферные явления, наблюдавшиеся в срок или в последний час перед сроком; фигурными скобками обозначены явления, наблюдавшиеся между сроками (за 1-3 часа до срока); квадратными скобками обозначены град или гололедные отложения с указанием их диаметра в мм.
  • Облачность - указаны через наклонную черту общая и нижняя облачность в баллах и высота нижней границы облаков в метрах; квадратными скобками обозначены формы облаков: Ci - перистые, Cs - перисто-слоистые, Cc - перисто-кучевые, Ac - высококучевые, As - высокослоистые, Sc - слоисто-кучевые, Ns - слоисто-дождевые, Cu - кучевые, Cb - кучево-дождевые. Подробнее классификацию облаков см. в Атласе облаков (PDF).
  • T - Температура воздуха - температура, измеренная на высоте 2 м над землей.
  • Td - Температура точки росы - температура, при понижении до которой содержащийся в воздухе водяной пар достигнет насыщения.
  • f - Относительная влажность воздуха - влажноcть воздуха, измеренная на высоте 2 м над землей.
  • Te - Эффективная температура - температура, которую ощущает одетый по сезону человек в тени. Характеристика душности погоды. При расчете учитывается влияние влажности воздуха и скорости ветра на теплоощущения человека.
  • Tes - Эффективная температура на солнце - температура, которую ощущает человек, с поправкой на солнечный нагрев. Характеристика знойности погоды. Зависит от высоты солнца над горизонтом, облачности и скорости ветра. Ночью, в пасмурную погоду, а также при ветре 12 м/с и более поправка равна нулю.
  • P - Атмосферное давление - приведенное к уровню моря атмосферное давление.
  • Po - Атмосферное давление - измеренное на уровне метеостанции атмосферное давление.
  • Tmin - Минимальная температура - минимум температуры воздуха на высоте 2 м над землей.
  • Tmax - Максимальная температура - максимум температуры воздуха на высоте 2 м над землей.
  • R - Количество осадков - Количество выпавших осадков за период времени, мм. При наведении курсора мыши на число - период времени, за который выпало указанное количество осадков.
  • R24 - Количество осадков - Количество выпавших осадков за 24 часа, мм.
  • S - Снежный покров - Высота снежного покрова, см. При наведении курсора мыши на число - состояние снежного покрова и степень покрытия местности в баллах.